Overview Statistics Trail Chart Weather Telemetry Raw packets
 

This is the latest recevied weather packets stored in our database for station/object VE6HFD-WX. If no packets are shown the sender has not sent any weather packets the latest 10 day(s).

<< 66 67 68 69 70 71 72 >>
Time Temp. Humidity Pressure Rain* Wind** Luminosity Snow
1777558599 4.44° C 75% 1020.9 hPa 0 mm - - -
1777558269 3.89° C 75% 1020.9 hPa 0 mm - - -
1777557939 3.89° C 78% 1021 hPa 0 mm - - -
1777557639 3.33° C 79% 1021 hPa 0 mm - - -
1777557309 2.78° C 81% 1021 hPa 0 mm - - -
1777557009 2.22° C 82% 1021 hPa 0 mm - - -
1777556679 1.67° C 82% 1021 hPa 0 mm - - -
1777556349 1.67° C 81% 1020.9 hPa 0 mm - - -
1777556019 1.11° C 80% 1020.9 hPa 0 mm - - -
1777555689 1.11° C 79% 1020.9 hPa 0 mm - - -
1777555359 1.11° C 78% 1020.9 hPa 0 mm - - -
1777555029 1.11° C 77% 1020.9 hPa 0 mm - - -
1777554729 1.11° C 75% 1020.9 hPa 0 mm - - -
1777554429 1.11° C 72% 1020.9 hPa 0 mm - - -
1777554099 1.67° C 71% 1021 hPa 0 mm - - -
1777553769 1.67° C 72% 1021 hPa 0 mm - - -
1777553469 1.11° C 71% 1020.9 hPa 0 mm - - -
1777553169 1.67° C 69% 1021 hPa 0 mm - - -
1777552869 1.67° C 70% 1021 hPa 0 mm - - -
1777552539 1.67° C 68% 1021.1 hPa 0 mm - - -
1777552209 1.67° C 69% 1021.1 hPa 0 mm - - -
1777551879 1.67° C 70% 1021.2 hPa 0 mm - - -
1777551579 1.67° C 69% 1021.3 hPa 0 mm - - -
1777551249 1.67° C 70% 1021.3 hPa 0 mm - - -
1777550949 2.22° C 69% 1021.4 hPa 0 mm - - -

* Rain latest hour (hover to see other rain measurements)
** Current wind speed in m/s (hover to see current wind gust speed)